星链-37516(STARLINK-37516)

导读

STARLINK-37516(NORAD编号68915)是美国太空探索技术公司(SpaceX)星链(Starlink)低轨互联网星座中的一颗卫星,属于星链卫星组网的组成部分。星链计划旨在近地轨道部署数万颗卫星,为全球提供高速、低时延的卫星互联网服务,填补偏远地区网络覆盖空白,同时也支持特殊场景通信需求。作为星链星座的一员,该卫星承担天基通信转发任务,助力构建覆盖全球的卫星互联网络,推进SpaceX全球卫星互联网布局的实现。

Basic Information
目录编号:
68915
目录名称:
STARLINK-37516
国际标识:
2026-097W
轨道中心:
EARTH
卫星名称:
星链-37516
卫星全名:
星链-37516(STARLINK-37516)
卫星状态:
在轨 (已飞行127 天)
发射日期:
2026-04-30 UTC
国别 :
美国 (US)
星等 :
--
Orbit Information
数据来源 国际轨道数据 AOE轨道数据
星历时间 2026-09-03T20:23:50+0800
1天前
查看轨道信息
2026-08-28T23:00:00+0800
6天前
查看轨道信息
半长轴 6843.661km 6843.73km
偏心率 0.0002038 0.0001742
轨道倾角 97.285° 97.285°
近地点辐角 86.053° 85.129°
升交点赤经 80.970° 75.161°
平近点角 274.094° 172.567°
近地点 464.129km 464.4km
远地点 466.919km 466.786km
周期 93.906分钟 93.907分钟
每日圈数 15.334517 15.334283
Detailed Information
固有亮度:
5
最大亮度:
2.5
卫星平台:
Starlink V1.0
覆盖范围:
全球
运营商:
太空探索技术公司
运营商所在国:
美国
制造商(研发单位):
太空探索技术公司
制造商所在国:
美国
使用方式:
暂无
Satellite Introduction
Starlink 计划是 SpaceX 推出的全球卫星互联网项目,通过发射低轨道卫星,为全球尤其是偏远地区提供高速、低延迟的互联网服务。自 2019 年起,Starlink 已部署数千颗卫星,旨在缩小全球数字鸿沟,推动互联网普及。该项目还为军事、航空等行业提供通信支持,带来广泛经济效益。
2D Orbit Map
3D Orbit Map
Orbit Altitude Analysis Chart
Orbit Inclination Analysis Chart
Orbit Comprehensive Analysis Chart
View Comprehensive Chart
Conjunction Data List
Event ID Objects TCA Miss Dist (km) Collision Risk Probability Collision Risk Index (CRI) Action
CDM_260904-215105-115206-891521
2026-09-04T
21:51:14+0000
2.451 km
极远距离
1.731765E-6 低风险 0.4
CDM_260904-232505-115206-891521
2026-09-04T
23:25:10+0000
2.621 km
极远距离
1.540898E-6 低风险 0.39
CDM_260905-121206-410906-891521
2026-09-05T
12:12:42+0000
2.827 km
极远距离
1.441114E-6 低风险 0.38
CDM_260904-083604-836506-891521
2026-09-04T
08:36:26+0000
2.985 km
极远距离
1.328781E-6 低风险 0.37
CDM_260906-145205-082306-891521
2026-09-06T
14:52:03+0000
2.960 km
极远距离
8.258145E-7 极低风险 0.33